Vertical_Velocity
-1 -6 -2 1 2 4 5 -5 -0 9 -8 -2 -2 7 8 4 -1 -8 4 0 -5 -5 4 1 -2 2 0 -2 -1 -2 -3 -1 1 -1 1 4 1 -1 3 -4 6 -1 1 1
-11 -8 8 -2 -4 -0 3 3 2 4 3 -3 -3 -1 -4 1 0 -3 -2 4 -6 -4 -5 1 -1 1 3 -0 -2 -3 -0 -1 -1 0 1 -3 -4 -0 -3 -1 -0 3 -2 4
-6 10 -3 -2 2 -2 8 -1 3 3 2 -8 -1 2 2 5 -14 11 -2 -10 1 -3 -5 0 -1 -2 2 1 -1 1 -6 -2 -4 1 -0 -4 1 -10 -3 -9 -4 -4 -2 0
-5 6 -6 -2 0 -4 1 3 -2 -4 -0 3 2 -11 -2 -1 -7 1 5 -5 -6 -5 -8 -2 -5 1 -1 -3 -2 -1 0 -0 -1 -4 -3 1 0 -2 -1 7 -3 1 2 -2
25 -5 1 -5 8 -3 7 -6 4 -3 1 -9 19 -28 18 6 -21 10 0 12 2 1 -3 -2 -5 -6 -6 -3 -4 -4 -4 -4 -3 -0 -0 1 -1 -3 -1 -2 -3 -1 -2 -3
10 -4 -6 8 4 -0 3 -1 7 1 1 -29 23 -4 26 18 -20 -21 4 14 5 -2 -1 -4 -4 -2 -1 -1 -4 -5 -6 -4 -6 -4 -2 -4 -3 -3 -3 -4 -2 -1 -4 -4
25 11 -10 5 1 -0 -2 4 -1 -4 -13 -16 7 -12 4 -6 3 -12 -13 1 3 -3 -4 -3 -2 -3 -3 -5 -5 -6 -8 -6 -6 -7 -4 -1 -2 -3 -2 -3 -4 -4 -4 -2
-1 -32 23 19 11 -1 10 2 5 -5 2 -6 -4 -12 -12 15 -5 17 -11 -11 -3 -3 -4 -5 -3 -2 -3 -3 -4 -5 -5 -2 -4 -3 -0 -1 -1 -5 -2 0 2 3 -1 -3
-1 -25 2 -7 -0 7 8 -29 33 -6 9 -14 7 11 -1 -0 4 10 -2 -9 -3 -1 -0 -4 -3 -2 -2 -3 -6 -4 -3 -2 -3 -1 1 1 1 -2 1 -2 -0 -1 -1 -0
6 -18 15 -21 -4 7 -6 4 4 -0 -10 6 -4 2 15 -26 10 2 -0 -3 -3 0 -2 -4 -3 -5 -1 -6 -3 -5 -3 -3 -1 -1 -1 -3 -2 -0 -0 -0 -2 1 -1 0
15 -14 -5 -22 -3 12 7 -4 -6 12 -9 8 -13 8 -6 15 -8 -3 -2 -2 -2 -0 -4 -1 -5 -1 -1 -4 -5 -6 -3 -0 -3 -3 -2 -2 -2 -2 -3 -3 -2 0 0 2
20 2 -10 -1 -1 18 6 1 4 -6 2 -12 -2 -31 -38 14 10 -3 -9 -5 8 -4 -2 -2 -3 -4 3 -7 -5 -4 -1 -1 -0 -5 -3 -2 -2 -2 -2 -3 -1 -4 -1 0
22 -35 6 -12 -18 9 1 -1 4 1 -3 -46 30 -55 5 19 -16 -7 -9 -9 15 7 -3 -6 -1 -2 -2 -4 -5 -3 -2 -4 1 0 -2 -2 -3 -3 -2 -3 -1 -3 -1 -0
18 3 3 4 24 13 -4 1 1 -1 -17 9 -24 1 12 10 6 3 8 4 -31 7 10 -4 0 2 4 -8 -3 -2 2 -5 -0 -2 -2 -0 0 -3 -1 -3 -1 -0 -1 1
11 -2 13 0 -11 20 -12 -8 -0 -0 7 -1 17 -15 11 13 -5 -2 5 16 -11 16 5 -6 -4 1 4 -8 -6 -3 2 -4 1 -1 -1 -1 -3 -3 -3 -2 -1 -0 -0 2
9 -1 1 -5 11 17 -7 -5 -9 -2 11 -2 -3 -21 25 6 7 -4 7 -18 -5 6 11 -7 -8 -1 -1 -5 0 -2 -0 0 2 1 -2 -2 -3 -3 -2 -2 -2 -2 -2 -0
6 -6 10 -29 26 15 -6 -24 15 2 1 3 0 3 10 -2 2 15 -4 5 -2 2 12 -6 -3 -5 -0 -1 1 -1 -3 1 2 -0 -1 -3 -1 -1 -1 -3 -2 -1 -0 1
-7 2 4 -21 12 -14 -19 2 11 6 8 2 13 1 -2 2 22 1 -24 -15 -4 8 3 -0 -4 -2 -2 -2 -3 5 -2 1 -0 -0 -1 -1 -2 -1 -2 -1 0 2 1 3
-3 7 3 7 18 11 -17 9 6 8 -10 -2 -6 -11 0 -3 17 -8 10 -4 0 -11 0 -6 -1 -3 -1 -1 -1 -1 -0 0 1 -0 -1 -1 -2 -3 -0 -0 -0 1 4 3
0 2 4 22 9 -5 -13 6 15 8 -52 50 -4 -7 2 7 -27 15 -4 18 2 3 -2 1 1 -2 -1 -3 7 -1 1 4 -0 -1 -0 -1 -1 -1 -1 -1 2 2 4 2
-2 -2 -7 9 -4 -30 7 12 13 -6 -26 5 2 -2 -11 -4 5 4 -2 -4 5 3 1 1 -1 -2 1 -2 2 -0 5 -1 -1 -0 -0 -1 -1 -1 -0 0 1 2 2 3
6 24 -4 -4 -3 -41 18 0 0 1 -10 -2 1 -7 2 1 3 -4 0 3 2 2 -2 -5 0 -1 1 2 4 3 -1 -1 1 1 -1 -0 -0 -1 2 -0 1 -2 -1 -1
-31 -2 7 18 5 6 -3 -4 6 3 -2 -1 -5 -5 1 2 -3 3 4 -1 1 -1 -2 -3 -2 -1 2 3 4 -2 -0 2 1 1 -0 2 1 -0 1 -2 -1 -1 -0 0
-5 15 -23 16 17 -7 -3 -6 -7 3 -0 -2 -2 1 3 1 3 1 1 0 -2 -3 -5 -2 2 1 2 2 -1 0 1 0 1 0 1 1 -0 1 1 -0 1 1 1 2
24 35 6 1 1 3 1 0 1 -8 5 0 -6 6 -2 -5 -1 -1 -1 -1 -2 -2 0 0 -0 0 -0 -1 1 0 1 0 1 1 -0 1 1 1 0 1 0 1 1 2
9 10 -1 -2 -2 -2 5 2 10 -4 8 -7 -8 7 -3 2 1 2 1 -2 -1 -2 1 1 -1 -0 -1 1 0 1 0 1 1 -0 -1 0 1 1 1 1 -0 -1 -0 0
Height
5757 5755 5758 5764 5763 5764 5768 5763 5764 5769 5767 5761 5760 5769 5770 5770 5770 5757 5765 5762 5763 5762 5763 5763 5762 5761 5760 5759 5758 5757 5756 5753 5751 5750 5748 5746 5745 5743 5741 5740 5738 5737 5737 5736
5744 5747 5754 5752 5752 5753 5757 5758 5759 5759 5760 5757 5752 5754 5757 5760 5757 5751 5755 5754 5754 5754 5754 5754 5753 5753 5752 5751 5749 5747 5746 5744 5742 5740 5737 5734 5731 5730 5726 5725 5723 5721 5720 5719
5737 5743 5741 5742 5745 5743 5747 5749 5751 5751 5749 5747 5747 5748 5748 5747 5746 5747 5745 5744 5745 5744 5744 5744 5744 5743 5742 5741 5739 5738 5736 5733 5730 5727 5724 5720 5717 5714 5711 5709 5706 5704 5702 5701
5728 5732 5732 5734 5735 5736 5739 5740 5738 5737 5741 5741 5742 5735 5738 5737 5736 5735 5737 5738 5737 5736 5735 5735 5734 5734 5734 5732 5729 5727 5725 5722 5717 5711 5707 5702 5699 5696 5694 5692 5689 5687 5686 5684
5721 5720 5724 5721 5728 5729 5729 5727 5727 5728 5732 5732 5731 5728 5733 5728 5724 5725 5726 5729 5729 5728 5727 5726 5725 5725 5723 5721 5719 5716 5712 5708 5703 5698 5693 5689 5684 5681 5678 5675 5672 5670 5670 5668
5708 5710 5710 5716 5715 5719 5719 5717 5721 5721 5719 5718 5723 5724 5726 5718 5714 5714 5716 5718 5717 5716 5715 5715 5715 5713 5711 5708 5705 5702 5699 5695 5690 5686 5682 5676 5672 5667 5664 5661 5659 5656 5654 5652
5698 5700 5699 5704 5707 5708 5708 5710 5711 5709 5706 5711 5715 5711 5712 5708 5704 5702 5705 5708 5707 5705 5706 5705 5704 5702 5700 5697 5694 5690 5686 5682 5678 5674 5670 5665 5661 5657 5654 5650 5647 5643 5640 5638
5681 5684 5688 5692 5696 5697 5700 5700 5701 5699 5699 5702 5703 5699 5699 5701 5700 5695 5694 5696 5697 5696 5696 5695 5693 5692 5689 5685 5682 5678 5675 5670 5667 5663 5659 5654 5651 5648 5645 5641 5637 5633 5629 5625
5666 5673 5674 5679 5681 5686 5686 5685 5692 5689 5690 5688 5693 5695 5688 5690 5688 5686 5682 5682 5685 5686 5685 5683 5683 5681 5679 5675 5672 5668 5663 5660 5656 5652 5649 5645 5642 5638 5634 5631 5627 5623 5619 5615
5657 5656 5662 5664 5669 5673 5672 5675 5676 5674 5676 5677 5684 5684 5683 5679 5681 5676 5673 5672 5674 5674 5673 5671 5671 5669 5667 5664 5661 5658 5653 5649 5645 5641 5638 5635 5631 5627 5623 5619 5615 5612 5608 5605
5646 5642 5649 5647 5656 5658 5660 5660 5659 5661 5668 5666 5670 5673 5672 5670 5667 5665 5664 5663 5663 5662 5662 5660 5659 5658 5655 5653 5650 5647 5643 5638 5635 5631 5627 5624 5620 5616 5612 5608 5604 5601 5598 5595
5632 5628 5633 5640 5643 5645 5646 5651 5651 5648 5655 5653 5657 5661 5661 5658 5657 5655 5653 5652 5654 5649 5649 5647 5647 5646 5645 5641 5639 5634 5631 5627 5624 5620 5617 5614 5610 5606 5602 5598 5594 5591 5588 5585
5614 5611 5619 5625 5632 5633 5633 5638 5638 5639 5643 5643 5646 5654 5653 5650 5645 5641 5639 5639 5649 5641 5637 5636 5635 5635 5634 5630 5627 5623 5620 5617 5613 5610 5607 5603 5600 5596 5592 5587 5584 5581 5578 5576
5596 5598 5605 5611 5622 5622 5621 5624 5628 5629 5629 5634 5633 5639 5642 5640 5636 5634 5633 5630 5632 5632 5624 5625 5624 5624 5622 5619 5617 5613 5609 5606 5603 5600 5597 5593 5589 5585 5581 5578 5574 5571 5569 5567
5585 5587 5595 5600 5607 5606 5604 5609 5618 5618 5618 5618 5628 5624 5630 5628 5624 5626 5623 5618 5621 5622 5615 5615 5613 5614 5610 5607 5604 5602 5598 5595 5593 5590 5587 5583 5579 5574 5571 5567 5564 5561 5560 5559
5569 5573 5577 5583 5590 5592 5590 5599 5606 5604 5609 5607 5611 5612 5618 5617 5615 5613 5611 5607 5610 5611 5605 5604 5601 5601 5599 5595 5593 5590 5588 5585 5583 5580 5576 5573 5569 5565 5561 5557 5554 5552 5551 5551
5561 5564 5568 5569 5580 5580 5575 5590 5590 5594 5596 5597 5596 5602 5606 5603 5605 5603 5595 5600 5599 5600 5595 5591 5591 5590 5588 5585 5582 5580 5578 5576 5574 5571 5567 5563 5560 5556 5552 5548 5545 5543 5544 5545
5554 5557 5560 5563 5568 5558 5571 5580 5579 5579 5582 5586 5585 5586 5592 5593 5593 5586 5582 5584 5589 5589 5586 5583 5580 5578 5577 5574 5572 5570 5569 5567 5565 5561 5558 5555 5552 5549 5545 5542 5539 5539 5539 5541
5545 5549 5551 5551 5552 5554 5558 5570 5568 5565 5566 5576 5571 5575 5577 5580 5578 5575 5575 5572 5575 5575 5573 5572 5570 5568 5566 5564 5562 5561 5560 5558 5556 5553 5551 5549 5546 5543 5540 5537 5536 5536 5537 5537
5537 5538 5540 5543 5540 5541 5558 5561 5557 5553 5551 5564 5559 5562 5565 5566 5563 5564 5568 5567 5564 5563 5563 5562 5561 5558 5555 5554 5553 5553 5552 5550 5548 5546 5544 5543 5541 5539 5537 5535 5534 5534 5534 5535
5530 5531 5530 5533 5531 5534 5551 5547 5547 5540 5552 5548 5550 5551 5551 5552 5553 5554 5556 5553 5553 5553 5553 5552 5550 5547 5546 5545 5546 5545 5543 5542 5541 5540 5539 5538 5537 5535 5534 5533 5532 5533 5533 5534
5523 5524 5523 5525 5524 5527 5531 5534 5533 5534 5534 5537 5538 5538 5541 5541 5540 5540 5541 5543 5543 5544 5543 5541 5539 5538 5538 5537 5537 5536 5535 5535 5535 5534 5534 5533 5532 5532 5532 5531 5532 5532 5532 5532
5514 5517 5517 5519 5517 5519 5520 5523 5524 5524 5524 5526 5526 5529 5528 5528 5528 5529 5531 5532 5533 5533 5532 5530 5529 5529 5529 5529 5528 5528 5529 5529 5529 5529 5529 5529 5529 5529 5530 5530 5530 5531 5531 5531
5505 5506 5504 5508 5513 5510 5513 5514 5515 5515 5515 5517 5517 5520 5519 5519 5520 5521 5522 5522 5523 5523 5521 5520 5520 5520 5521 5520 5521 5521 5522 5523 5524 5525 5525 5525 5526 5527 5527 5528 5528 5528 5528 5528
5498 5499 5498 5498 5500 5501 5503 5504 5505 5505 5506 5507 5508 5512 5510 5511 5511 5512 5513 5513 5513 5512 5511 5510 5511 5512 5512 5513 5514 5515 5516 5518 5519 5520 5521 5522 5523 5524 5524 5525 5525 5524 5524 5523
5490 5490 5490 5492 5492 5493 5495 5495 5495 5495 5497 5497 5498 5500 5499 5500 5500 5501 5502 5502 5503 5502 5502 5502 5503 5504 5506 5507 5508 5509 5511 5513 5514 5515 5517 5518 5519 5520 5520 5520 5520 5519 5519 5518